Regional Weather Roundup
Issued by NWS

Home | Current Version | Previous Version | Text Only | Print | Product List | Glossary On
Versions: 1 2 3 4 5 6 7 8 9 10 11 12 13 14 15 16 17 18 19 20 21 22 23 24 25 26 27 28 29 30 31 32 33 34 35 36 37 38 39 40 41 42 43 44 45 46 47 48 49 50
000
ASUS45 KPSR 301410
RWRAZ

ARIZONA REGIONAL HOURLY WEATHER ROUNDUP
NATIONAL WEATHER SERVICE PHOENIX AZ
700 AM MST TUE SEP 30 2014

NOTE: FAIR INDICATES FEW OR NO CLOUDS BELOW 12,000 FEET WITH NO
SIGNIFICANT WEATHER AND/OR OBSTRUCTIONS TO VISIBILITY.

AZZ001>003-036-301500-
NORTHWEST ARIZONA

CITY           SKY/WX    TMP DP  RH WIND       PRES   REMARKS
BULLHEAD CITY  CLEAR     64  37  36 E3        29.87R
KINGMAN        NOT AVBL
$$

AZZ004>008-015-016-018-301500-
NORTH CENTRAL ARIZONA

CITY           SKY/WX    TMP DP  RH WIND       PRES   REMARKS
GRAND CANYON   CLEAR     34  32  92 CALM      30.11S
PRESCOTT       CLEAR     45  36  70 CALM      30.05S
FLAGSTAFF      PTCLDY    34  31  88 CALM      30.13R
PAYSON         CLEAR     48  37  66 CALM      30.07R
$$

AZZ009>014-017-301500-
NORTHEAST ARIZONA

CITY           SKY/WX    TMP DP  RH WIND       PRES   REMARKS
WINSLOW        CLEAR     46  42  86 SE5       30.06R
SAINT JOHNS    CLEAR     46  35  65 S3        30.08R
WINDOW ROCK    CLEAR     35  32  88 CALM      30.11S
SHOW LOW       CLEAR     41  34  75 S5        30.13S
$$

AZZ023-301500-
GREATER PHOENIX AREA

CITY           SKY/WX    TMP DP  RH WIND       PRES   REMARKS
PHOENIX        CLEAR     67  53  61 SE3       29.86R
BUCKEYE          N/A     59  52  77 CALM      29.87R
GLENDALE       CLEAR     63  54  72 N3        29.88R
LUKE AFB       CLEAR     62  51  68 NW6       29.86R
DEER VALLEY    CLEAR     63  51  65 CALM      29.87R
SCOTTSDALE     CLEAR     62  55  77 CALM      29.89R
MESA-FALCON    CLEAR     64  48  55 N7        29.87R
MESA-GATEWAY   CLEAR     61  54  77 SE6       29.89R
CHANDLER       CLEAR     61  55  82 N5        29.88R
$$

AZZ027-028-301500-
SOUTHWEST MARICOPA COUNTY AND PINAL COUNTY

CITY           SKY/WX    TMP DP  RH WIND       PRES   REMARKS
CASA GRANDE    CLEAR     61  45  55 CALM      29.89R
GILA BEND      SUNNY     61  50  67 VRB2      29.82
$$

AZZ503-504-507>509-301500-
SOUTHEAST ARIZONA

CITY           SKY/WX    TMP DP  RH WIND       PRES   REMARKS
TUCSON         CLEAR     61  46  57 SE7       29.95R
DAVIS-MONTHAN  CLEAR     59  44  56 SE9       29.94R
RYAN FIELD       N/A     57  43  58 CALM      29.95R
NOGALES        CLEAR     53  49  86 CALM      30.00R
SIERRA VISTA   PTCLDY    57  48  72 CALM      30.03S
DOUGLAS        CLEAR     55  51  86 CALM      30.01R
SAFFORD        CLEAR     56  39  53 CALM      29.95R
$$

AZZ020-021-025-026-031-301500-
SOUTHWEST ARIZONA

CITY           SKY/WX    TMP DP  RH WIND       PRES   REMARKS
YUMA           CLEAR     69  46  43 CALM      29.82R
$$

CAZ031-033-041-043-047-048-061-301500-
SOUTHERN CALIFORNIA

CITY           SKY/WX    TMP DP  RH WIND       PRES   REMARKS
DOWNTOWN L.A.  CLEAR     64  56  75 CALM      29.85F
L.A. AIRPORT   PTCLDY    63  57  81 CALM      29.86S
SAN DIEGO      CLEAR     66  57  72 CALM      29.87R
BURBANK        CLEAR     60  46  59 CALM      29.87R
ONTARIO        CLEAR     64  50  60 CALM      29.87S
RIVERSIDE      CLEAR     59  51  75 E5        29.88R
PALM SPRINGS   CLEAR     72  42  34 NW8       29.86R
EL CENTRO NAS  CLEAR     65  39  38 CALM      29.81R
IMPERIAL       CLEAR     63  43  48 W6        29.80S
BLYTHE         CLEAR     64  46  52 CALM      29.83R
NEEDLES        CLEAR     67  39  35 W6        29.86R
$$

NVZ020-UTZ003-301500-
SOUTHERN NEVADA-UTAH

CITY           SKY/WX    TMP DP  RH WIND       PRES   REMARKS
LAS VEGAS      CLEAR     66  38  35 S8        29.89R
SALT LAKE CITY MOCLDY    53  49  86 S6        29.97R
$$

NMZ009-TXZ055-301500-
NEW MEXICO-WEST TEXAS

CITY           SKY/WX    TMP DP  RH WIND       PRES   REMARKS
ALBUQUERQUE    SUNNY     50  37  61 CALM      30.06S
EL PASO        MOSUNNY   68  55  63 S5        29.97R
$$


........................KEY........................
SKY/WX - SKY CONDITION/WEATHER
TMP    - TEMPERATURE IN FAHRENHEIT
DP     - DEW POINT IN FAHRENHEIT
RH     - RELATIVE HUMIDITY IN PERCENT
WIND   - DIRECTION AND SPEED IN MILES PER HOUR (MPH)
VRB    - VARIABLE WIND DIRECTION
PRES   - MEAN SEA LEVEL PRESSURE IN INCHES OF MERCURY
         F - FALLING PRESSURE   R - RISING PRESSURE
         S - STEADY PRESSURE
VSB    - VISIBILITY IN MILES
HX     - HEAT INDEX IN FAHRENHEIT
WCI    - WIND CHILL INDEX IN FAHRENHEIT
TC     - TEMPERATURE IN CELSIUS WHICH IS ALSO KNOWN AS
         TEMPERATURE IN CENTIGRADE
AFB    - AIR FORCE BASE
         LUKE AFB IS LUKE AIR FORCE BASE
         DAVIS-MONTHAN IS DAVIS-MONTHAN AIR FORCE BASE
NAS    - NAVAL AIR STATION
         EL CENTRO NAS IS EL CENTRO NAVAL AIR STATION
N/A    - NOT AVAILABLE



USA.gov is the U.S. government's official web portal to all federal, state and local government web resources and services.